Location: Chevoux
(46.3801°N, 4.9476°E)
Time: 22:19:41
(UTC+00:00)

Helios 1A Rocket - Pass Details

Date: 28 January 2021
Orbit: 562 x 586 km, 98.3° (Epoch: 04 March)

Event Time Altitude Azimuth Distance (km) Brightness Sun altitude
Rises 17:25:47 0° 128° (SE) 2,806 6.1 -8.4°
Reaches altitude 10° 17:28:20 10° 113° (ESE) 1,911 5.1 -8.8°
Maximum altitude 17:31:26 21° 64° (ENE) 1,342 4.2 -9.3°
Drops below altitude 10° 17:34:34 10° 15° (NNE) 1,919 5.3 -9.8°
Sets 17:37:07 0° 359° (N) 2,821 6.3 -10.2°
